Starlink 5749

operational
NORAD ID: 55569 Int'l Des: 2023-020 Owner: SPXS Country: US Constellation: starlink
LEOCIRCULAR

关于 Starlink 5749

正在加载描述...

实时位置

正在加载3D地球...

即将过境

高度历史

Altitude vs Time

uPlot chart will show altitude changes over time

两行轨道根数

1 55569U 23020A 25353.97328344 .00000352 00000-0 41162-4 0 9993
2 55569 43.0037 78.1619 0001236 274.8767 85.1935 15.02536586157997
Epoch: Dec 19, 2025 • Age: 16 hours

当前状态

高度 563.1 km
速度 7.59 km/s
星下点 43.15°N, 162.07°W
发射日期 Feb 12, 2023
运行时间 2.8 years
类型 internet

技术详情

分类 Payload
质量 305.00 kg
干质量 290.00 kg
总质量 305.00 kg
长度 0.20 m
直径 2.80 m
跨度 9.00 m
形状 Box + pan
制造商 SPXS
平台类型 Starlink
阶段状态 In Orbit
所有者/国家 SPXS/US

大型星座

Loading constellations...